Skip Page Navigation
NASA JPL Caltech
NASA Logo - Jet Propulsion Laboratory + View the NASA Portal
+ Near-Earth Object (NEO) Program
Search JPL
JPL Home Earth Solar System Stars & Galaxies Technology
JPL Solar System Dynamics
BODIES ORBITS EPHEMERIDES TOOLS PHYSICAL DATA DISCOVERY FAQ SITE MAP
JPL Small-Body Database Browser
Search: [ help ]  
23754 Rachnareddy (1998 KV46)
Classification: Main-belt Asteroid          SPK-ID: 2023754
Ephemeris | Orbit Diagram | Orbital Elements | Physical Parameters | Discovery Circumstances ]

[ show orbit diagram ]
Orbital Elements at Epoch 2456400.5 (2013-Apr-18.0) TDB
Reference: MPO233653 (heliocentric ecliptic J2000)
 Element Value Uncertainty (1-sigma)   Units 
e 0.1874962 n/a  
a 2.3196034 n/a AU
q 1.8846866 n/a AU
i 3.74181 n/a deg
node 231.06300 n/a deg
peri 10.54143 n/a deg
M 82.01728 n/a deg
tp 2456106.5172192
(2012-Jun-28.01721920)
n/a JED
period 1290.3841861
3.53
n/a
n/a
d
yr
n 0.27898668 n/a deg/d
Q 2.7545202 n/a AU
  Orbit Determination Parameters
   # obs. used (total)      501  
   first obs. used      1994-??-??  
   last obs. used      2012-06-18  
   # oppositions      13  
   planetary ephem.      DE403  
   condition code      0  
   fit RMS      0.52  
   data source      MPC:mpn  
   producer      MPCLINUX  

Additional Information
 T_jup = 3.552 

Ephemeris | Orbit Diagram | Orbital Elements | Physical Parameters | Discovery Circumstances ]

Physical Parameter Table
Parameter Symbol Value Units Sigma Reference Notes
absolute magnitude H 15.5 mag n/a PDS3 (MPO 11188)  

23754 Rachnareddy           Discovered 1998 May 22 by the Lincoln Laboratory Near-Earth Asteroid Research Team in Socorro.
Rachna Beeravolu Reddy (b. 1990) was awarded second place in the 2007 Intel International Science and Engineering Fair for her medicine and health sciences team project. She attends the Port Huron Northern High School, Port Huron, Michigan, U.S.A.
NOTE: some special characters may not display properly (any characters within {} are an attempt to place the proper accent above a character)
Reference: 20070828/MPCPages.arcLast Updated: 2007-08-30

Alternate Designations
 1998 KV46 = 1999 VD156 
Ephemeris | Orbit Diagram | Orbital Elements | Physical Parameters | Discovery Circumstances ]
ABOUT SSD CREDITS/AWARDS PRIVACY/COPYRIGHT GLOSSARY LINKS
FirstGov 2013-May-23 20:57 UT
(server date/time)  
NASA Home Page
Site Manager:   Donald K. Yeomans
Webmaster  Alan B. Chamberlin